When you browse on this site, cookies collect data to enhance your experience and personalize the content and advertising you see.
Visit our Privacy Policy to learn more. By continuing to use the site, you agree to this use of cookies and data.
  • In Österreich
  • Länderverzeichnis
  • Für 7 Tage
  • Wassertemperatur
  • Wetterkarte
  • News
  • Widgets
  • user-avatar
    Anmelden

    Stündliche Wetter Trujillo

    Heute, 31 Mai, Sonntag

    Zeit Temperatur Niederschläge Wind Luftdruck Luftfeuchtigkeit
    00:00 +15°C° 0 mm 1 m/S 616 mmHg 98%
    01:00 +15°C° 0.2 mm 1 m/S 615 mmHg 98%
    02:00 +15°C° 0.2 mm 1 m/S 615 mmHg 98%
    03:00 +15°C° 0.2 mm 1 m/S 615 mmHg 98%
    04:00 +15°C° 0.4 mm 1 m/S 615 mmHg 98%
    05:00 +15°C° 0.4 mm 2 m/S 615 mmHg 98%
    06:00 +16°C° 0 mm 1 m/S 615 mmHg 97%
    07:00 +16°C° 0.2 mm 2 m/S 616 mmHg 97%
    08:00 +16°C° 0.2 mm 2 m/S 616 mmHg 96%
    09:00 +17°C° 0.2 mm 2 m/S 616 mmHg 95%
    10:00 +16°C° 3.4 mm 2 m/S 616 mmHg 96%
    11:00 +16°C° 3.4 mm 1 m/S 616 mmHg 97%
    12:00 +16°C° 3.4 mm 1 m/S 616 mmHg 98%
    13:00 +16°C° 13.1 mm 1 m/S 616 mmHg 98%
    14:00 +16°C° 13.1 mm 1 m/S 615 mmHg 98%
    15:00 +15°C° 13.1 mm 1 m/S 615 mmHg 97%
    16:00 +15°C° 2.8 mm 1 m/S 615 mmHg 97%
    17:00 +15°C° 2.8 mm 1 m/S 615 mmHg 97%
    18:00 +15°C° 2.8 mm 1 m/S 616 mmHg 97%
    19:00 +15°C° 0.4 mm 1 m/S 616 mmHg 97%
    20:00 +15°C° 0.4 mm 1 m/S 616 mmHg 97%
    21:00 +15°C° 0.4 mm 1 m/S 616 mmHg 97%
    22:00 +15°C° 0.2 mm 1 m/S 616 mmHg 98%
    23:00 +15°C° 0.2 mm 1 m/S 616 mmHg 98%

    Morgen, 1 Juni, Montag

    Zeit Temperatur Niederschläge Wind Luftdruck Luftfeuchtigkeit
    00:00 +15°C° 0.2 mm 1 m/S 616 mmHg 98%
    01:00 +15°C° 0 mm 1 m/S 616 mmHg 98%
    02:00 +15°C° 0 mm 1 m/S 616 mmHg 98%
    03:00 +15°C° 0 mm 1 m/S 615 mmHg 97%
    04:00 +15°C° 0.1 mm 1 m/S 615 mmHg 97%
    05:00 +15°C° 0.1 mm 1 m/S 616 mmHg 97%
    06:00 +15°C° 0.1 mm 1 m/S 616 mmHg 97%
    07:00 +16°C° 0 mm 1 m/S 617 mmHg 93%
    08:00 +19°C° 0 mm 1 m/S 617 mmHg 90%
    09:00 +20°C° 0 mm 1 m/S 618 mmHg 87%
    10:00 +20°C° 0.9 mm 1 m/S 618 mmHg 86%
    11:00 +21°C° 0.9 mm 1 m/S 618 mmHg 85%
    12:00 +21°C° 0.9 mm 2 m/S 618 mmHg 85%
    13:00 +20°C° 1.5 mm 2 m/S 617 mmHg 88%
    14:00 +18°C° 1.5 mm 2 m/S 616 mmHg 92%
    15:00 +17°C° 1.5 mm 2 m/S 615 mmHg 96%
    16:00 +18°C° 1.1 mm 1 m/S 616 mmHg 97%
    17:00 +18°C° 1.1 mm 1 m/S 616 mmHg 97%
    18:00 +16°C° 1.1 mm 1 m/S 616 mmHg 98%
    19:00 +16°C° 0.2 mm 1 m/S 616 mmHg 98%
    20:00 +16°C° 0.2 mm 1 m/S 616 mmHg 98%
    21:00 +16°C° 0.2 mm 1 m/S 616 mmHg 98%
    22:00 +16°C° 0.1 mm 1 m/S 616 mmHg 98%
    23:00 +16°C° 0.1 mm 1 m/S 616 mmHg 98%

    übermorgen, 2 Juni, Dienstag

    Zeit Temperatur Niederschläge Wind Luftdruck Luftfeuchtigkeit
    00:00 +16°C° 0.1 mm 1 m/S 616 mmHg 98%
    01:00 +15°C° 0.2 mm 1 m/S 616 mmHg 98%
    02:00 +15°C° 0.2 mm 1 m/S 615 mmHg 98%
    03:00 +15°C° 0.2 mm 1 m/S 615 mmHg 98%
    04:00 +15°C° 0.1 mm 1 m/S 615 mmHg 98%
    05:00 +16°C° 0.1 mm 1 m/S 615 mmHg 98%
    06:00 +16°C° 0.1 mm 1 m/S 616 mmHg 98%
    07:00 +16°C° 0.3 mm 1 m/S 616 mmHg 96%
    08:00 +18°C° 0.3 mm 1 m/S 617 mmHg 94%
    09:00 +18°C° 0.3 mm 1 m/S 617 mmHg 93%
    10:00 +18°C° 2.3 mm 1 m/S 617 mmHg 94%
    11:00 +16°C° 2.3 mm 1 m/S 616 mmHg 95%
    12:00 +16°C° 2.3 mm 1 m/S 616 mmHg 97%
    13:00 +16°C° 0.2 mm 1 m/S 616 mmHg 96%
    14:00 +16°C° 0.2 mm 1 m/S 615 mmHg 95%
    15:00 +16°C° 0.2 mm 1 m/S 615 mmHg 94%
    16:00 +16°C° 0 mm 1 m/S 615 mmHg 95%
    17:00 +16°C° 0 mm 1 m/S 615 mmHg 96%
    18:00 +15°C° 0 mm 1 m/S 615 mmHg 96%
    19:00 +15°C° 0.1 mm 1 m/S 615 mmHg 97%
    20:00 +15°C° 0.1 mm 1 m/S 615 mmHg 97%
    21:00 +15°C° 0.1 mm 1 m/S 616 mmHg 97%
    22:00 +15°C° 0 mm 1 m/S 616 mmHg 97%
    23:00 +15°C° 0 mm 1 m/S 616 mmHg 97%

    3 Juni, Mittwoch

    Zeit Temperatur Niederschläge Wind Luftdruck Luftfeuchtigkeit
    00:00 +15°C° 0 mm 1 m/S 616 mmHg 97%
    01:00 +15°C° 0 mm 1 m/S 615 mmHg 97%
    02:00 +15°C° 0 mm 1 m/S 615 mmHg 97%
    03:00 +15°C° 0 mm 1 m/S 614 mmHg 97%
    04:00 +15°C° 0.8 mm 1 m/S 614 mmHg 97%
    05:00 +15°C° 0.8 mm 1 m/S 614 mmHg 97%
    06:00 +15°C° 0.8 mm 1 m/S 614 mmHg 98%
    07:00 +15°C° 5.1 mm 1 m/S 615 mmHg 97%
    08:00 +16°C° 5.1 mm 1 m/S 615 mmHg 97%
    09:00 +16°C° 5.1 mm 1 m/S 616 mmHg 97%
    10:00 +16°C° 0.9 mm 1 m/S 616 mmHg 96%
    11:00 +18°C° 0.9 mm 1 m/S 616 mmHg 94%
    12:00 +17°C° 0.9 mm 2 m/S 615 mmHg 93%
    13:00 +17°C° 0.3 mm 2 m/S 615 mmHg 93%
    14:00 +18°C° 0.3 mm 1 m/S 614 mmHg 94%
    15:00 +18°C° 0.3 mm 1 m/S 614 mmHg 94%
    16:00 +18°C° 0.1 mm 1 m/S 614 mmHg 94%
    17:00 +16°C° 0.1 mm 1 m/S 614 mmHg 94%
    18:00 +16°C° 0.1 mm 1 m/S 614 mmHg 95%
    19:00 +16°C° 0 mm 1 m/S 614 mmHg 95%
    20:00 +16°C° 0 mm 1 m/S 614 mmHg 95%
    21:00 +15°C° 0 mm 1 m/S 615 mmHg 96%
    22:00 +15°C° 0 mm 1 m/S 614 mmHg 96%
    23:00 +15°C° 0 mm 2 m/S 614 mmHg 96%

    4 Juni, Donnerstag

    Zeit Temperatur Niederschläge Wind Luftdruck Luftfeuchtigkeit
    00:00 +15°C° 0 mm 2 m/S 614 mmHg 96%
    01:00 +15°C° 0 mm 2 m/S 614 mmHg 96%
    02:00 +15°C° 0 mm 2 m/S 614 mmHg 96%
    03:00 +15°C° 0 mm 1 m/S 613 mmHg 96%
    04:00 +15°C° 0 mm 1 m/S 613 mmHg 96%
    05:00 +15°C° 0 mm 1 m/S 614 mmHg 96%
    06:00 +15°C° 0 mm 1 m/S 614 mmHg 96%
    07:00 +16°C° 0.1 mm 2 m/S 614 mmHg 92%
    08:00 +17°C° 0.1 mm 2 m/S 615 mmHg 88%
    09:00 +18°C° 0.1 mm 2 m/S 616 mmHg 85%
    10:00 +19°C° 0.4 mm 2 m/S 616 mmHg 84%
    11:00 +19°C° 0.4 mm 2 m/S 615 mmHg 83%
    12:00 +20°C° 0.4 mm 2 m/S 615 mmHg 83%
    13:00 +19°C° 0.9 mm 2 m/S 615 mmHg 86%
    14:00 +18°C° 0.9 mm 2 m/S 614 mmHg 89%
    15:00 +18°C° 0.9 mm 2 m/S 614 mmHg 92%
    16:00 +17°C° 0.5 mm 2 m/S 614 mmHg 93%
    17:00 +17°C° 0.5 mm 2 m/S 614 mmHg 95%
    18:00 +16°C° 0.5 mm 2 m/S 614 mmHg 97%
    19:00 +16°C° 0.2 mm 2 m/S 614 mmHg 97%
    20:00 +16°C° 0.2 mm 2 m/S 614 mmHg 97%
    21:00 +16°C° 0.2 mm 2 m/S 615 mmHg 97%
    22:00 +16°C° 0.2 mm 2 m/S 614 mmHg 97%
    23:00 +16°C° 0.2 mm 2 m/S 614 mmHg 97%

    5 Juni, Freitag

    Zeit Temperatur Niederschläge Wind Luftdruck Luftfeuchtigkeit
    00:00 +15°C° 0.2 mm 2 m/S 614 mmHg 97%
    01:00 +15°C° 1.6 mm 2 m/S 614 mmHg 97%
    02:00 +15°C° 1.6 mm 2 m/S 614 mmHg 98%
    03:00 +15°C° 1.6 mm 2 m/S 613 mmHg 98%
    04:00 +15°C° 0.8 mm 2 m/S 614 mmHg 98%
    05:00 +15°C° 0.8 mm 2 m/S 614 mmHg 98%
    06:00 +15°C° 0.8 mm 2 m/S 614 mmHg 97%
    07:00 +16°C° 0.5 mm 2 m/S 615 mmHg 97%
    08:00 +16°C° 0.5 mm 2 m/S 615 mmHg 96%
    09:00 +16°C° 0.5 mm 2 m/S 616 mmHg 95%
    10:00 +17°C° 0.9 mm 2 m/S 615 mmHg 93%
    11:00 +18°C° 0.9 mm 2 m/S 615 mmHg 91%
    12:00 +18°C° 0.9 mm 2 m/S 615 mmHg 90%
    13:00 +18°C° 0.4 mm 2 m/S 615 mmHg 90%
    14:00 +18°C° 0.4 mm 2 m/S 614 mmHg 91%
    15:00 +18°C° 0.4 mm 2 m/S 614 mmHg 92%
    16:00 +17°C° 0.2 mm 2 m/S 614 mmHg 93%
    17:00 +17°C° 0.2 mm 2 m/S 614 mmHg 94%
    18:00 +16°C° 0.2 mm 2 m/S 614 mmHg 96%
    19:00 +16°C° 0.2 mm 2 m/S 615 mmHg 96%
    20:00 +16°C° 0.2 mm 2 m/S 615 mmHg 96%
    21:00 +16°C° 0.2 mm 2 m/S 615 mmHg 96%
    22:00 +16°C° 0.1 mm 2 m/S 615 mmHg 96%
    23:00 +15°C° 0.1 mm 2 m/S 615 mmHg 96%
    Mehr zeigen